Regional Weather Roundup
Issued by NWS

Home | Current Version | Previous Version | Text Only | Print | Product List | Glossary On
Versions: 1 2 3 4 5 6 7 8 9 10 11 12 13 14 15 16 17 18 19 20 21 22 23 24 25 26 27 28 29 30 31 32 33 34 35 36 37 38 39 40 41 42 43 44 45 46 47 48 49 50
000
ASUS45 KSLC 161410
RWRUT

UTAH REGIONAL WEATHER ROUNDUP
NATIONAL WEATHER SERVICE SALT LAKE CITY UT
700 AM MST MON JAN 16 2017

UTZ001>011-023>025-161500-

NORTHERN UTAH

CITY           SKY/WX    TMP DP  RH WIND       PRES   REMARKS
BRIGHAM CITY     N/A     13   9  86 CALM      30.28R
HILL AFB       MOCLDY    13   6  74 E14       30.23R WCI  -3
LOGAN          LGT SNOW   0  -3  87 CALM      30.31R VSB 3/4
OGDEN          CLEAR     13   7  77 S7        30.24R WCI   3
SALT LAKE CITY CLOUDY    25  21  85 N8        30.25R WCI  16
TOOELE VALLEY  CLOUDY    27  23  86 N5        30.25R WCI  21
WENDOVER       CLOUDY    21  19  93 SW6       30.27R WCI  14
HEBER CITY     LGT SNOW   9   7  92 CALM      30.20R
WEST JORDAN    CLOUDY    23  23 100 NW5       30.24R WCI  17

$$

UTZ011>015-024>027-161500-

CENTRAL/NORTHEAST UTAH

CITY           SKY/WX    TMP DP  RH WIND       PRES   REMARKS
PROVO AIRPORT  FLURRIES  25  19  80 N8        30.24R WCI  16
MOAB/CANYONLAN CLOUDY    34  34 100 W7        30.01R WCI  28
DELTA          CLEAR     21  21 100 MISG      30.21R
PRICE          PTCLDY    22  11  62 CALM      30.01R
RICHFIELD      CLOUDY    28  21  74 N2        30.19R
ROOSEVELT      CLOUDY    27  21  80 CALM      30.15S
VERNAL         CLOUDY    13   9  84 CALM      30.13R

$$

UTZ013>016-019>022-027-161500-

SOUTHERN UTAH

CITY           SKY/WX    TMP DP  RH WIND       PRES   REMARKS
BRYCE CANYON   CLOUDY    16  11  80 N9        30.05R WCI   4
CEDAR CITY     CLOUDY    25  19  78 N10       30.11S WCI  15
MILFORD        CLOUDY    27  22  81 N14       30.17S WCI  16
ST GEORGE      MOSUNNY   34  23  64 CALM      30.12R
HANKSVILLE     CLOUDY    34  27  75 MISG      30.05R
KANAB          CLEAR     27  25  93 MISG      30.09R
BLANDING       PTCLDY    31  31 100 N5        30.01R WCI  27

$$

REGIONAL REPORTS     COLORADO/ARIZONA

CITY           SKY/WX    TMP DP  RH WIND       PRES   REMARKS
CRAIG, CO      CLOUDY    13   9  84 NW3       30.12R
GRAND JUNCTION PTCLDY    33  17  51 E3        30.01R
RIFLE, CO      CLOUDY    29  16  58 NW12      30.04R WCI  19
MONTROSE, CO   CLOUDY    31  29  92 CALM      30.03R
CORTEZ, CO     CLOUDY    32  29  88 NW3       29.91S
COLORADO CITY    N/A     32  27  80 N3        30.07R
PAGE, AZ       CLEAR     37  21  52 W5        30.01R WCI  33
GRAND CANYON   CLEAR     25  25 100 CALM      30.00R
KINGMAN, AZ    MOCLDY    35  26  69 E6        30.05R WCI  30
FLAGSTAFF, AZ  MOCLDY    28  28 100 CALM      29.99R

$$

REGIONAL REPORTS    NEVADA/IDAHO/WYOMING

CITY           SKY/WX    TMP DP  RH WIND       PRES   REMARKS
LAS VEGAS, NV  MOCLDY    43  27  53 CALM      30.09R
ELY, NY        CLOUDY    18  17  96 N9        30.19R WCI   7
ELKO, NV       CLOUDY    21  16  81 W8        30.28R WCI  11
POCATELLO, ID  LGT SNOW   5   1  83 NE5       30.34R FOG     WCI  -4
BURLEY, ID     LGT SNOW  12   8  84 CALM      30.32S FOG
FORT BRIDGER,    N/A     -8 -13  80 NW3       30.16R
EVANSTON, WY   CLOUDY    -1  -7  75 E5        30.12S WCI -11
ROCK SPRINGS,  FOG       -8 -11  86 SW6       30.14R VSB 1/4 WCI -21
KEMMERER, WY     N/A    N/A N/A N/A N5        30.13R

$$



USA.gov is the U.S. government's official web portal to all federal, state and local government web resources and services.